Time,TemperatureF,DewpointF,PressureIn,WindDirection,WindDirectionDegrees,WindSpeedMPH,WindSpeedGustMPH,Humidity,HourlyPrecipIn,Conditions,Clouds,dailyrainin,SoftwareType,DateUTC
2013-06-28 00:00:00,77.4,32.0,29.77,ENE,70,14.0,19.0,19,0.00,,CLR,0.00,VWS V14.01,2013-06-28 06:00:00,
2013-06-28 00:06:00,77.4,33.2,29.77,ENE,63,14.0,21.0,20,0.00,,CLR,0.00,VWS V14.01,2013-06-28 06:06:00,
2013-06-28 00:11:00,77.4,34.5,29.77,ENE,63,15.0,23.0,21,0.00,,CLR,0.00,VWS V14.01,2013-06-28 06:11:00,
2013-06-28 00:16:00,77.0,34.1,29.77,ENE,71,11.0,23.0,21,0.00,,CLR,0.00,VWS V14.01,2013-06-28 06:16:00,
2013-06-28 00:21:00,76.8,35.1,29.77,NE,51,15.0,24.0,22,0.00,,CLR,0.00,VWS V14.01,2013-06-28 06:21:00,
2013-06-28 00:26:00,76.4,34.8,29.77,East,84,18.0,24.0,22,0.00,,CLR,0.00,VWS V14.01,2013-06-28 06:26:00,
2013-06-28 00:30:00,76.3,34.7,29.77,East,81,23.0,24.0,22,0.00,,CLR,0.00,VWS V14.01,2013-06-28 06:30:00,
2013-06-28 00:31:00,76.1,35.7,29.77,East,84,15.0,26.0,23,0.00,,CLR,0.00,VWS V14.01,2013-06-28 06:31:00,
2013-06-28 00:36:00,75.7,36.4,29.78,ENE,64,21.0,26.0,24,0.00,,CLR,0.00,VWS V14.01,2013-06-28 06:36:00,
2013-06-28 00:41:00,75.6,36.3,29.78,East,88,22.0,26.0,24,0.00,,CLR,0.00,VWS V14.01,2013-06-28 06:41:00,
2013-06-28 00:46:00,75.2,37.0,29.78,ENE,70,18.0,27.0,25,0.00,,CLR,0.00,VWS V14.01,2013-06-28 06:46:00,
2013-06-28 00:51:00,75.0,37.8,29.77,ENE,70,19.0,28.0,26,0.00,,CLR,0.00,VWS V14.01,2013-06-28 06:51:00,
2013-06-28 00:56:00,74.8,38.6,29.77,ESE,115,20.0,28.0,27,0.00,,CLR,0.00,VWS V14.01,2013-06-28 06:56:00,
2013-06-28 01:00:00,74.8,38.6,29.77,ENE,77,13.0,28.0,27,0.00,,CLR,0.00,VWS V14.01,2013-06-28 07:00:00,
2013-06-28 01:01:00,74.6,39.4,29.77,East,90,15.0,25.0,28,0.00,,CLR,0.00,VWS V14.01,2013-06-28 07:01:00,
2013-06-28 01:06:00,74.2,40.8,29.77,East,81,17.0,25.0,30,0.00,,CLR,0.00,VWS V14.01,2013-06-28 07:06:00,
2013-06-28 01:11:00,73.9,41.4,29.76,East,84,19.0,28.0,31,0.00,,CLR,0.00,VWS V14.01,2013-06-28 07:11:00,
2013-06-28 01:16:00,73.8,42.1,29.76,ENE,68,15.0,28.0,32,0.00,,CLR,0.00,VWS V14.01,2013-06-28 07:16:00,
2013-06-28 01:21:00,73.7,42.0,29.77,East,92,12.0,32.0,32,0.00,,CLR,0.00,VWS V14.01,2013-06-28 07:21:00,
2013-06-28 01:26:00,73.5,42.7,29.77,ESE,105,16.0,32.0,33,0.00,,CLR,0.00,VWS V14.01,2013-06-28 07:26:00,
2013-06-28 01:30:00,73.5,42.7,29.77,East,100,15.0,32.0,33,0.00,,CLR,0.00,VWS V14.01,2013-06-28 07:30:00,
2013-06-28 01:31:00,73.4,42.6,29.77,NE,44,7.0,22.0,33,0.00,,CLR,0.00,VWS V14.01,2013-06-28 07:31:00,
2013-06-28 01:36:00,73.3,42.5,29.76,ESE,105,14.0,22.0,33,0.00,,CLR,0.00,VWS V14.01,2013-06-28 07:36:00,
2013-06-28 01:41:00,73.1,43.1,29.77,East,100,12.0,22.0,34,0.00,,CLR,0.00,VWS V14.01,2013-06-28 07:41:00,
2013-06-28 01:46:00,72.9,42.9,29.77,ENE,67,13.0,22.0,34,0.00,,CLR,0.00,VWS V14.01,2013-06-28 07:46:00,
2013-06-28 01:51:00,73.0,43.8,29.77,East,96,16.0,24.0,35,0.00,,CLR,0.00,VWS V14.01,2013-06-28 07:51:00,
2013-06-28 01:56:00,73.1,43.8,29.77,East,84,17.0,28.0,35,0.00,,CLR,0.00,VWS V14.01,2013-06-28 07:56:00,
2013-06-28 02:00:00,73.1,43.8,29.77,East,81,17.0,28.0,35,0.00,,CLR,0.00,VWS V14.01,2013-06-28 08:00:00,
2013-06-28 02:01:00,73.2,44.7,29.77,ESE,111,27.0,27.0,36,0.00,,CLR,0.00,VWS V14.01,2013-06-28 08:01:00,
2013-06-28 02:06:00,73.3,45.5,29.76,East,86,14.0,27.0,37,0.00,,CLR,0.00,VWS V14.01,2013-06-28 08:06:00,
2013-06-28 02:11:00,73.3,44.8,29.76,SE,139,18.0,27.0,36,0.00,,CLR,0.00,VWS V14.01,2013-06-28 08:11:00,
2013-06-28 02:16:00,73.1,45.3,29.76,ESE,120,13.0,27.0,37,0.00,,CLR,0.00,VWS V14.01,2013-06-28 08:16:00,
2013-06-28 02:21:00,72.9,45.8,29.76,East,95,21.0,29.0,38,0.00,,CLR,0.00,VWS V14.01,2013-06-28 08:21:00,
2013-06-28 02:26:00,72.8,46.4,29.77,ENE,78,9.0,29.0,39,0.00,,CLR,0.00,VWS V14.01,2013-06-28 08:26:00,
2013-06-28 02:30:00,72.8,46.4,29.77,East,85,19.0,29.0,39,0.00,,CLR,0.00,VWS V14.01,2013-06-28 08:30:00,
2013-06-28 02:31:00,72.7,46.3,29.77,ESE,109,18.0,25.0,39,0.00,,CLR,0.00,VWS V14.01,2013-06-28 08:31:00,
2013-06-28 02:37:00,72.5,46.8,29.77,ENE,74,25.0,26.0,40,0.00,,CLR,0.00,VWS V14.01,2013-06-28 08:37:00,
2013-06-28 02:42:00,72.5,46.8,29.76,East,82,22.0,27.0,40,0.00,,CLR,0.00,VWS V14.01,2013-06-28 08:42:00,
2013-06-28 02:47:00,72.4,46.7,29.77,East,79,17.0,31.0,40,0.00,,CLR,0.00,VWS V14.01,2013-06-28 08:47:00,
2013-06-28 02:52:00,72.3,46.7,29.77,NE,43,22.0,31.0,40,0.00,,CLR,0.00,VWS V14.01,2013-06-28 08:52:00,
2013-06-28 02:57:00,72.2,46.6,29.77,ENE,64,10.0,31.0,40,0.00,,CLR,0.00,VWS V14.01,2013-06-28 08:57:00,
2013-06-28 03:00:00,72.2,46.6,29.77,East,81,10.0,31.0,40,0.00,,CLR,0.00,VWS V14.01,2013-06-28 09:00:00,
2013-06-28 03:02:00,72.1,47.1,29.77,East,91,9.0,28.0,41,0.00,,CLR,0.00,VWS V14.01,2013-06-28 09:02:00,
2013-06-28 03:07:00,72.0,47.0,29.77,ESE,120,11.0,28.0,41,0.00,,CLR,0.00,VWS V14.01,2013-06-28 09:07:00,
2013-06-28 03:12:00,72.0,47.0,29.77,ENE,68,21.0,28.0,41,0.00,,CLR,0.00,VWS V14.01,2013-06-28 09:12:00,
2013-06-28 03:17:00,71.9,47.6,29.77,East,92,19.0,28.0,42,0.00,,CLR,0.00,VWS V14.01,2013-06-28 09:17:00,
2013-06-28 03:22:00,71.8,47.5,29.76,ENE,66,19.0,28.0,42,0.00,,CLR,0.00,VWS V14.01,2013-06-28 09:22:00,
2013-06-28 03:27:00,71.7,47.4,29.77,ENE,63,29.0,29.0,42,0.00,,CLR,0.00,VWS V14.01,2013-06-28 09:27:00,
2013-06-28 03:30:00,71.7,47.4,29.77,ESE,122,19.0,28.0,42,0.00,,CLR,0.00,VWS V14.01,2013-06-28 09:30:00,
2013-06-28 03:32:00,71.6,47.3,29.77,NE,51,23.0,34.0,42,0.00,,CLR,0.00,VWS V14.01,2013-06-28 09:32:00,
2013-06-28 03:37:00,71.5,47.2,29.77,ENE,57,20.0,34.0,42,0.00,,CLR,0.00,VWS V14.01,2013-06-28 09:37:00,
2013-06-28 03:42:00,71.2,47.0,29.77,NE,46,14.0,34.0,42,0.00,,CLR,0.00,VWS V14.01,2013-06-28 09:42:00,
2013-06-28 03:47:00,71.1,46.9,29.78,NE,44,22.0,34.0,42,0.00,,CLR,0.00,VWS V14.01,2013-06-28 09:47:00,
2013-06-28 03:52:00,71.0,46.8,29.77,ENE,78,24.0,34.0,42,0.00,,CLR,0.00,VWS V14.01,2013-06-28 09:52:00,
2013-06-28 03:57:00,70.9,46.7,29.77,ENE,75,23.0,23.0,42,0.00,,CLR,0.00,VWS V14.01,2013-06-28 09:57:00,
2013-06-28 04:00:00,70.9,46.7,29.77,SE,125,9.0,34.0,42,0.00,,CLR,0.00,VWS V14.01,2013-06-28 10:00:00,
2013-06-28 04:02:00,70.8,46.0,29.77,ENE,68,22.0,28.0,41,0.00,,CLR,0.00,VWS V14.01,2013-06-28 10:02:00,
2013-06-28 04:07:00,70.6,45.8,29.77,East,81,19.0,30.0,41,0.00,,CLR,0.00,VWS V14.01,2013-06-28 10:07:00,
2013-06-28 04:12:00,70.5,45.0,29.77,East,86,10.0,30.0,40,0.00,,CLR,0.00,VWS V14.01,2013-06-28 10:12:00,
2013-06-28 04:17:00,70.4,44.3,29.77,ENE,63,13.0,30.0,39,0.00,,CLR,0.00,VWS V14.01,2013-06-28 10:17:00,
2013-06-28 04:22:00,70.1,44.0,29.77,ENE,71,22.0,30.0,39,0.00,,CLR,0.00,VWS V14.01,2013-06-28 10:22:00,
2013-06-28 04:27:00,70.0,43.9,29.77,ENE,75,13.0,19.0,39,0.00,,CLR,0.00,VWS V14.01,2013-06-28 10:27:00,
2013-06-28 04:30:00,70.0,43.2,29.76,NE,56,18.0,31.0,38,0.00,,CLR,0.00,VWS V14.01,2013-06-28 10:30:00,
2013-06-28 04:32:00,69.8,43.1,29.76,ESE,103,8.0,24.0,38,0.00,,CLR,0.00,VWS V14.01,2013-06-28 10:32:00,
2013-06-28 04:37:00,69.9,43.2,29.77,ENE,75,15.0,29.0,38,0.00,,CLR,0.00,VWS V14.01,2013-06-28 10:37:00,
2013-06-28 04:42:00,69.9,42.5,29.77,East,88,25.0,29.0,37,0.00,,CLR,0.00,VWS V14.01,2013-06-28 10:42:00,
2013-06-28 04:47:00,70.0,42.6,29.77,ENE,68,12.0,29.0,37,0.00,,CLR,0.00,VWS V14.01,2013-06-28 10:47:00,
2013-06-28 04:53:00,69.9,43.2,29.77,ENE,71,18.0,29.0,38,0.00,,CLR,0.00,VWS V14.01,2013-06-28 10:53:00,
2013-06-28 04:58:00,69.8,43.1,29.78,ENE,72,8.0,18.0,38,0.00,,CLR,0.00,VWS V14.01,2013-06-28 10:58:00,
2013-06-28 05:00:00,69.8,43.1,29.78,NE,51,18.0,29.0,38,0.00,,CLR,0.00,VWS V14.01,2013-06-28 11:00:00,
2013-06-28 05:03:00,69.6,43.6,29.79,ESE,110,12.0,24.0,39,0.00,,CLR,0.00,VWS V14.01,2013-06-28 11:03:00,
2013-06-28 05:08:00,69.6,43.6,29.78,ESE,113,10.0,24.0,39,0.00,,CLR,0.00,VWS V14.01,2013-06-28 11:08:00,
2013-06-28 05:13:00,69.4,43.4,29.79,South,172,8.0,24.0,39,0.00,,CLR,0.00,VWS V14.01,2013-06-28 11:13:00,
2013-06-28 05:18:00,69.4,43.4,29.79,SW,215,6.0,24.0,39,0.00,,CLR,0.00,VWS V14.01,2013-06-28 11:18:00,
2013-06-28 05:23:00,69.4,44.1,29.79,NE,47,9.0,24.0,40,0.00,,CLR,0.00,VWS V14.01,2013-06-28 11:23:00,
2013-06-28 05:28:00,69.3,44.0,29.79,ENE,57,19.0,19.0,40,0.00,,CLR,0.00,VWS V14.01,2013-06-28 11:28:00,
2013-06-28 05:30:00,69.3,44.0,29.79,ESE,117,6.0,24.0,40,0.00,,CLR,0.00,VWS V14.01,2013-06-28 11:30:00,
2013-06-28 05:33:00,69.3,44.0,29.79,East,95,16.0,25.0,40,0.00,,CLR,0.00,VWS V14.01,2013-06-28 11:33:00,
2013-06-28 05:38:00,69.2,43.9,29.79,East,96,19.0,25.0,40,0.00,,CLR,0.00,VWS V14.01,2013-06-28 11:38:00,
2013-06-28 05:43:00,69.4,44.1,29.79,SE,146,9.0,25.0,40,0.00,,CLR,0.00,VWS V14.01,2013-06-28 11:43:00,
2013-06-28 05:48:00,69.4,44.1,29.79,ESE,114,11.0,25.0,40,0.00,,CLR,0.00,VWS V14.01,2013-06-28 11:48:00,
2013-06-28 05:53:00,69.3,44.0,29.79,WSW,250,0.0,25.0,40,0.00,,CLR,0.00,VWS V14.01,2013-06-28 11:53:00,
2013-06-28 05:58:00,68.7,44.1,29.79,WSW,250,8.0,9.0,41,0.00,,CLR,0.00,VWS V14.01,2013-06-28 11:58:00,
2013-06-28 06:00:00,68.9,43.6,29.79,West,260,8.0,25.0,40,0.00,,CLR,0.00,VWS V14.01,2013-06-28 12:00:00,
2013-06-28 06:03:00,68.2,44.3,29.80,WNW,287,0.0,9.0,42,0.00,,CLR,0.00,VWS V14.01,2013-06-28 12:03:00,
2013-06-28 06:08:00,67.6,44.3,29.80,WNW,286,3.0,9.0,43,0.00,,CLR,0.00,VWS V14.01,2013-06-28 12:08:00,
2013-06-28 06:13:00,67.6,44.3,29.80,WNW,286,3.0,9.0,43,0.00,,CLR,0.00,VWS V14.01,2013-06-28 12:13:00,
2013-06-28 06:18:00,67.7,44.4,29.81,WSW,256,2.0,9.0,43,0.00,,CLR,0.00,VWS V14.01,2013-06-28 12:18:00,
2013-06-28 06:23:00,67.3,44.1,29.80,WNW,293,2.0,9.0,43,0.00,,CLR,0.00,VWS V14.01,2013-06-28 12:23:00,
2013-06-28 06:28:00,67.4,44.2,29.81,WNW,288,2.0,4.0,43,0.00,,CLR,0.00,VWS V14.01,2013-06-28 12:28:00,
2013-06-28 06:30:00,67.3,44.1,29.81,West,281,4.0,9.0,43,0.00,,CLR,0.00,VWS V14.01,2013-06-28 12:30:00,
2013-06-28 06:33:00,67.4,44.2,29.81,WNW,293,0.0,4.0,43,0.00,,CLR,0.00,VWS V14.01,2013-06-28 12:33:00,
2013-06-28 06:38:00,67.4,44.2,29.81,WNW,287,2.0,5.0,43,0.00,,CLR,0.00,VWS V14.01,2013-06-28 12:38:00,
2013-06-28 06:43:00,67.4,44.2,29.81,WNW,290,0.0,5.0,43,0.00,,CLR,0.00,VWS V14.01,2013-06-28 12:43:00,
2013-06-28 06:48:00,67.2,44.0,29.81,WNW,290,0.0,5.0,43,0.00,,CLR,0.00,VWS V14.01,2013-06-28 12:48:00,
2013-06-28 06:53:00,67.1,43.9,29.81,SSE,150,0.0,5.0,43,0.00,,CLR,0.00,VWS V14.01,2013-06-28 12:53:00,
2013-06-28 06:58:00,67.1,44.5,29.81,NW,326,0.0,1.0,44,0.00,,CLR,0.00,VWS V14.01,2013-06-28 12:58:00,
2013-06-28 07:00:00,67.1,44.5,29.81,SSE,149,0.0,5.0,44,0.00,,CLR,0.00,VWS V14.01,2013-06-28 13:00:00,
2013-06-28 07:03:00,67.3,44.7,29.81,WNW,287,1.0,4.0,44,0.00,,CLR,0.00,VWS V14.01,2013-06-28 13:03:00,
2013-06-28 07:08:00,68.2,44.3,29.81,SSE,148,2.0,4.0,42,0.00,,CLR,0.00,VWS V14.01,2013-06-28 13:08:00,
2013-06-28 07:13:00,68.2,44.3,29.81,SE,125,0.0,4.0,42,0.00,,CLR,0.00,VWS V14.01,2013-06-28 13:13:00,
2013-06-28 07:18:00,68.2,44.3,29.81,SE,125,0.0,4.0,42,0.00,,CLR,0.00,VWS V14.01,2013-06-28 13:18:00,
2013-06-28 07:23:00,68.1,45.4,29.82,SE,126,0.0,4.0,44,0.00,,CLR,0.00,VWS V14.01,2013-06-28 13:23:00,
2013-06-28 07:28:00,68.0,45.3,29.82,West,276,0.0,0.0,44,0.00,,CLR,0.00,VWS V14.01,2013-06-28 13:28:00,
2013-06-28 07:30:00,68.0,44.7,29.82,West,269,0.0,4.0,43,0.00,,CLR,0.00,VWS V14.01,2013-06-28 13:30:00,
2013-06-28 07:34:00,68.1,45.4,29.82,West,276,0.0,0.0,44,0.00,,CLR,0.00,VWS V14.01,2013-06-28 13:34:00,
2013-06-28 07:39:00,68.3,45.0,29.82,WSW,255,1.0,1.0,43,0.00,,CLR,0.00,VWS V14.01,2013-06-28 13:39:00,
2013-06-28 07:44:00,68.6,45.2,29.82,WSW,257,0.0,3.0,43,0.00,,CLR,0.00,VWS V14.01,2013-06-28 13:44:00,
2013-06-28 07:49:00,68.6,45.8,29.82,West,260,0.0,3.0,44,0.00,,CLR,0.00,VWS V14.01,2013-06-28 13:49:00,
2013-06-28 07:54:00,68.6,45.8,29.81,West,260,0.0,3.0,44,0.00,,CLR,0.00,VWS V14.01,2013-06-28 13:54:00,
2013-06-28 07:59:00,68.4,46.8,29.81,West,260,0.0,0.0,46,0.00,,CLR,0.00,VWS V14.01,2013-06-28 13:59:00,
2013-06-28 08:00:00,68.5,46.3,29.81,West,260,0.0,3.0,45,0.00,,CLR,0.00,VWS V14.01,2013-06-28 14:00:00,
2013-06-28 08:04:00,68.3,46.2,29.82,West,260,0.0,0.0,45,0.00,,CLR,0.00,VWS V14.01,2013-06-28 14:04:00,
2013-06-28 08:09:00,68.4,46.2,29.82,West,262,0.0,1.0,45,0.00,,CLR,0.00,VWS V14.01,2013-06-28 14:09:00,
2013-06-28 08:14:00,68.6,47.0,29.82,West,262,0.0,1.0,46,0.00,,CLR,0.00,VWS V14.01,2013-06-28 14:14:00,
2013-06-28 08:19:00,68.9,45.5,29.82,ENE,70,2.0,4.0,43,0.00,,CLR,0.00,VWS V14.01,2013-06-28 14:19:00,
2013-06-28 08:24:00,69.4,44.7,29.82,ENE,70,1.0,4.0,41,0.00,,CLR,0.00,VWS V14.01,2013-06-28 14:24:00,
2013-06-28 08:29:00,69.9,45.2,29.82,ESE,115,1.0,2.0,41,0.00,,CLR,0.00,VWS V14.01,2013-06-28 14:29:00,
2013-06-28 08:30:00,69.7,45.0,29.82,ESE,120,2.0,4.0,41,0.00,,CLR,0.00,VWS V14.01,2013-06-28 14:30:00,
2013-06-28 08:34:00,70.4,45.0,29.82,ESE,113,0.0,2.0,40,0.00,,CLR,0.00,VWS V14.01,2013-06-28 14:34:00,
2013-06-28 08:39:00,70.8,44.6,29.82,ESE,115,0.0,2.0,39,0.00,,CLR,0.00,VWS V14.01,2013-06-28 14:39:00,
2013-06-28 08:44:00,71.2,45.0,29.82,SW,225,0.0,3.0,39,0.00,,CLR,0.00,VWS V14.01,2013-06-28 14:44:00,
2013-06-28 08:49:00,71.5,44.6,29.82,SW,219,0.0,3.0,38,0.00,,FEW120,0.00,VWS V14.01,2013-06-28 14:49:00,
2013-06-28 08:54:00,72.1,45.1,29.82,WSW,255,0.0,3.0,38,0.00,,FEW120,0.00,VWS V14.01,2013-06-28 14:54:00,
2013-06-28 08:59:00,72.8,44.3,29.82,West,276,0.0,3.0,36,0.00,,FEW120,0.00,VWS V14.01,2013-06-28 14:59:00,
2013-06-28 09:00:00,72.5,44.1,29.82,WSW,248,2.0,3.0,36,0.00,,CLR,0.00,VWS V14.01,2013-06-28 15:00:00,
2013-06-28 09:04:00,73.3,46.9,29.82,WNW,295,3.0,4.0,39,0.00,,FEW120,0.00,VWS V14.01,2013-06-28 15:04:00,
2013-06-28 09:09:00,73.0,45.9,29.83,WNW,283,6.0,6.0,38,0.00,,FEW120,0.00,VWS V14.01,2013-06-28 15:09:00,
2013-06-28 09:14:00,72.9,45.1,29.82,WNW,282,3.0,6.0,37,0.00,,FEW120,0.00,VWS V14.01,2013-06-28 15:14:00,
2013-06-28 09:19:00,73.4,45.6,29.83,West,263,2.0,6.0,37,0.00,,FEW120,0.00,VWS V14.01,2013-06-28 15:19:00,
2013-06-28 09:24:00,73.8,45.2,29.82,WSW,257,4.0,6.0,36,0.00,,FEW120,0.00,VWS V14.01,2013-06-28 15:24:00,
2013-06-28 09:29:00,74.1,44.7,29.83,NNW,338,1.0,4.0,35,0.00,,FEW120,0.00,VWS V14.01,2013-06-28 15:29:00,
2013-06-28 09:30:00,74.0,45.4,29.83,WNW,289,0.0,6.0,36,0.00,,CLR,0.00,VWS V14.01,2013-06-28 15:30:00,
2013-06-28 09:34:00,74.6,45.2,29.83,NW,319,1.0,4.0,35,0.00,,CLR,0.00,VWS V14.01,2013-06-28 15:34:00,
2013-06-28 09:39:00,75.3,45.0,29.82,North,358,0.0,4.0,34,0.00,,CLR,0.00,VWS V14.01,2013-06-28 15:39:00,
2013-06-28 09:45:00,75.8,44.7,29.82,NW,319,0.0,4.0,33,0.00,,CLR,0.00,VWS V14.01,2013-06-28 15:45:00,
2013-06-28 09:50:00,75.9,44.0,29.82,West,265,4.0,4.0,32,0.00,,CLR,0.00,VWS V14.01,2013-06-28 15:50:00,
2013-06-28 09:55:00,76.0,44.8,29.82,WNW,285,4.0,5.0,33,0.00,,CLR,0.00,VWS V14.01,2013-06-28 15:55:00,
2013-06-28 10:00:00,76.4,44.4,29.81,WNW,287,2.0,5.0,32,0.00,,CLR,0.00,VWS V14.01,2013-06-28 16:00:00,
2013-06-28 10:05:00,76.7,43.8,29.82,WSW,252,1.0,5.0,31,0.00,,CLR,0.00,VWS V14.01,2013-06-28 16:05:00,
2013-06-28 10:10:00,76.6,43.7,29.82,WSW,257,2.0,5.0,31,0.00,,CLR,0.00,VWS V14.01,2013-06-28 16:10:00,
2013-06-28 10:15:00,77.1,44.2,29.82,NW,308,1.0,5.0,31,0.00,,CLR,0.00,VWS V14.01,2013-06-28 16:15:00,
2013-06-28 10:20:00,77.3,43.5,29.82,West,272,6.0,9.0,30,0.00,,CLR,0.00,VWS V14.01,2013-06-28 16:20:00,
2013-06-28 10:25:00,77.8,43.0,29.81,ESE,114,0.0,9.0,29,0.00,,CLR,0.00,VWS V14.01,2013-06-28 16:25:00,
2013-06-28 10:30:00,78.0,43.2,29.82,WNW,287,1.0,7.0,29,0.00,,CLR,0.00,VWS V14.01,2013-06-28 16:30:00,
2013-06-28 10:35:00,78.6,43.7,29.82,North,353,1.0,7.0,29,0.00,,CLR,0.00,VWS V14.01,2013-06-28 16:35:00,
2013-06-28 10:40:00,78.8,43.9,29.82,SW,214,4.0,7.0,29,0.00,,CLR,0.00,VWS V14.01,2013-06-28 16:40:00,
2013-06-28 10:45:00,78.8,43.9,29.81,WNW,285,3.0,10.0,29,0.00,,CLR,0.00,VWS V14.01,2013-06-28 16:45:00,
2013-06-28 10:50:00,79.3,44.3,29.82,West,262,3.0,10.0,29,0.00,,CLR,0.00,VWS V14.01,2013-06-28 16:50:00,
2013-06-28 10:55:00,79.2,43.3,29.81,West,274,3.0,10.0,28,0.00,,CLR,0.00,VWS V14.01,2013-06-28 16:55:00,
2013-06-28 11:00:00,79.8,43.8,29.81,SW,235,6.0,6.0,28,0.00,,CLR,0.00,VWS V14.01,2013-06-28 17:00:00,
2013-06-28 11:05:00,79.9,43.9,29.81,West,277,4.0,6.0,28,0.00,,CLR,0.00,VWS V14.01,2013-06-28 17:05:00,
2013-06-28 11:10:00,79.8,43.8,29.81,NW,305,1.0,6.0,28,0.00,,CLR,0.00,VWS V14.01,2013-06-28 17:10:00,
2013-06-28 11:15:00,80.1,43.1,29.81,WNW,283,0.0,6.0,27,0.00,,CLR,0.00,VWS V14.01,2013-06-28 17:15:00,
2013-06-28 11:20:00,81.0,43.9,29.81,WNW,293,4.0,6.0,27,0.00,,CLR,0.00,VWS V14.01,2013-06-28 17:20:00,
2013-06-28 11:25:00,80.5,43.5,29.81,WNW,298,4.0,7.0,27,0.00,,CLR,0.00,VWS V14.01,2013-06-28 17:25:00,
2013-06-28 11:30:00,81.1,44.0,29.81,West,276,3.0,9.0,27,0.00,,CLR,0.00,VWS V14.01,2013-06-28 17:30:00,
2013-06-28 11:35:00,81.5,43.3,29.80,West,272,4.0,9.0,26,0.00,,CLR,0.00,VWS V14.01,2013-06-28 17:35:00,
2013-06-28 11:40:00,81.6,43.4,29.80,WSW,255,5.0,9.0,26,0.00,,CLR,0.00,VWS V14.01,2013-06-28 17:40:00,
2013-06-28 11:46:00,82.0,43.8,29.80,WNW,294,0.0,9.0,26,0.00,,CLR,0.00,VWS V14.01,2013-06-28 17:46:00,
2013-06-28 11:51:00,82.8,43.4,29.79,West,277,3.0,9.0,25,0.00,,CLR,0.00,VWS V14.01,2013-06-28 17:51:00,
2013-06-28 11:56:00,84.2,44.6,29.79,NNW,338,1.0,9.0,25,0.00,,CLR,0.00,VWS V14.01,2013-06-28 17:56:00,
2013-06-28 12:00:00,84.3,43.6,29.78,WNW,285,3.0,9.0,24,0.00,,CLR,0.00,VWS V14.01,2013-06-28 18:00:00,
2013-06-28 12:01:00,83.7,43.1,29.78,North,6,1.0,5.0,24,0.00,,CLR,0.00,VWS V14.01,2013-06-28 18:01:00,
2013-06-28 12:06:00,84.2,42.4,29.78,WNW,283,1.0,5.0,23,0.00,,CLR,0.00,VWS V14.01,2013-06-28 18:06:00,
2013-06-28 12:11:00,84.5,42.7,29.77,NW,322,2.0,5.0,23,0.00,,CLR,0.00,VWS V14.01,2013-06-28 18:11:00,
2013-06-28 12:16:00,84.4,42.6,29.77,West,267,0.0,6.0,23,0.00,,CLR,0.00,VWS V14.01,2013-06-28 18:16:00,
2013-06-28 12:21:00,85.0,40.7,29.77,West,278,2.0,6.0,21,0.00,,CLR,0.00,VWS V14.01,2013-06-28 18:21:00,
2013-06-28 12:26:00,85.4,42.3,29.76,NW,309,2.0,6.0,22,0.00,,CLR,0.00,VWS V14.01,2013-06-28 18:26:00,
2013-06-28 12:30:00,85.6,41.2,29.76,NNW,342,4.0,6.0,21,0.00,,CLR,0.00,VWS V14.01,2013-06-28 18:30:00,
2013-06-28 12:31:00,86.7,40.9,29.75,WNW,284,5.0,6.0,20,0.00,,CLR,0.00,VWS V14.01,2013-06-28 18:31:00,
2013-06-28 12:36:00,86.5,39.4,29.75,East,89,4.0,7.0,19,0.00,,CLR,0.00,VWS V14.01,2013-06-28 18:36:00,
2013-06-28 12:41:00,86.3,39.2,29.75,NW,322,1.0,7.0,19,0.00,,CLR,0.00,VWS V14.01,2013-06-28 18:41:00,
2013-06-28 12:46:00,87.9,40.5,29.75,WNW,286,2.0,7.0,19,0.00,,CLR,0.00,VWS V14.01,2013-06-28 18:46:00,
2013-06-28 12:51:00,88.1,39.3,29.74,West,263,3.0,7.0,18,0.00,,CLR,0.00,VWS V14.01,2013-06-28 18:51:00,
2013-06-28 12:56:00,88.0,40.6,29.74,NNW,342,4.0,7.0,19,0.00,,CLR,0.00,VWS V14.01,2013-06-28 18:56:00,
2013-06-28 13:00:00,88.1,39.3,29.74,WNW,287,4.0,7.0,18,0.00,,CLR,0.00,VWS V14.01,2013-06-28 19:00:00,
2013-06-28 13:01:00,87.8,39.1,29.74,NNE,15,1.0,7.0,18,0.00,,CLR,0.00,VWS V14.01,2013-06-28 19:01:00,
2013-06-28 13:06:00,87.4,40.1,29.74,WNW,289,0.0,7.0,19,0.00,,CLR,0.00,VWS V14.01,2013-06-28 19:06:00,
2013-06-28 13:11:00,87.4,41.5,29.74,NE,52,0.0,9.0,20,0.00,,CLR,0.00,VWS V14.01,2013-06-28 19:11:00,
2013-06-28 13:17:00,87.0,41.1,29.74,NE,44,3.0,9.0,20,0.00,,CLR,0.00,VWS V14.01,2013-06-28 19:17:00,
2013-06-28 13:22:00,85.2,35.5,29.74,NNE,23,9.0,14.0,17,0.00,,CLR,0.00,VWS V14.01,2013-06-28 19:22:00,
2013-06-28 13:27:00,83.6,32.7,29.74,ENE,58,15.0,15.0,16,0.00,,CLR,0.00,VWS V14.01,2013-06-28 19:27:00,
2013-06-28 13:30:00,83.6,32.7,29.74,ENE,58,15.0,15.0,16,0.00,,CLR,0.00,VWS V14.01,2013-06-28 19:30:00,
2013-06-28 13:32:00,83.1,32.3,29.74,NW,321,7.0,15.0,16,0.00,,FEW110,0.00,VWS V14.01,2013-06-28 19:32:00,
2013-06-28 13:37:00,82.5,31.8,29.75,ENE,60,17.0,22.0,16,0.00,,FEW110,0.00,VWS V14.01,2013-06-28 19:37:00,
2013-06-28 13:42:00,82.1,28.2,29.74,NW,324,4.0,22.0,14,0.00,,FEW110,0.00,VWS V14.01,2013-06-28 19:42:00,
2013-06-28 13:47:00,82.2,33.1,29.74,ENE,57,7.0,22.0,17,0.00,,FEW110,0.00,VWS V14.01,2013-06-28 19:47:00,
2013-06-28 13:52:00,80.9,33.5,29.75,NE,53,14.0,22.0,18,0.00,,FEW110,0.00,VWS V14.01,2013-06-28 19:52:00,
2013-06-28 13:57:00,80.6,31.8,29.75,ENE,63,7.0,11.0,17,0.00,,FEW110,0.00,VWS V14.01,2013-06-28 19:57:00,
2013-06-28 14:00:00,80.6,31.8,29.75,ENE,60,11.0,22.0,17,0.00,,CLR,0.00,VWS V14.01,2013-06-28 20:00:00,
2013-06-28 14:02:00,80.4,33.1,29.75,NE,49,12.0,17.0,18,0.00,,CLR,0.00,VWS V14.01,2013-06-28 20:02:00,
2013-06-28 14:07:00,80.5,31.7,29.76,ENE,67,10.0,17.0,17,0.00,,CLR,0.00,VWS V14.01,2013-06-28 20:07:00,
2013-06-28 14:12:00,80.2,34.2,29.76,NE,53,28.0,28.0,19,0.00,,CLR,0.00,VWS V14.01,2013-06-28 20:12:00,
2013-06-28 14:17:00,78.5,36.5,29.75,ENE,70,20.0,28.0,22,0.00,,CLR,0.00,VWS V14.01,2013-06-28 20:17:00,
2013-06-28 14:22:00,77.4,37.8,29.75,ESE,106,19.0,32.0,24,0.00,,CLR,0.00,VWS V14.01,2013-06-28 20:22:00,
2013-06-28 14:27:00,76.6,37.1,29.75,ENE,77,23.0,28.0,24,0.00,,CLR,0.00,VWS V14.01,2013-06-28 20:27:00,
2013-06-28 14:30:00,76.6,37.1,29.75,East,91,17.0,32.0,24,0.00,,CLR,0.00,VWS V14.01,2013-06-28 20:30:00,
2013-06-28 14:32:00,76.5,37.1,29.75,East,96,21.0,35.0,24,0.00,,CLR,0.00,VWS V14.01,2013-06-28 20:32:00,
2013-06-28 14:37:00,76.4,37.0,29.75,ESE,118,24.0,35.0,24,0.00,,CLR,0.00,VWS V14.01,2013-06-28 20:37:00,
2013-06-28 14:42:00,76.2,37.8,29.75,ENE,72,23.0,35.0,25,0.00,,CLR,0.00,VWS V14.01,2013-06-28 20:42:00,
2013-06-28 14:47:00,76.3,36.9,29.75,ENE,68,23.0,35.0,24,0.00,,CLR,0.00,VWS V14.01,2013-06-28 20:47:00,
2013-06-28 14:52:00,76.4,37.0,29.75,East,92,25.0,36.0,24,0.00,,CLR,0.00,VWS V14.01,2013-06-28 20:52:00,
2013-06-28 14:57:00,76.2,36.8,29.75,East,95,17.0,22.0,24,0.00,,CLR,0.00,VWS V14.01,2013-06-28 20:57:00,
2013-06-28 15:00:00,76.2,36.8,29.75,East,98,13.0,36.0,24,0.00,,CLR,0.00,VWS V14.01,2013-06-28 21:00:00,
2013-06-28 15:02:00,76.0,36.6,29.76,ESE,110,14.0,29.0,24,0.00,,CLR,0.00,VWS V14.01,2013-06-28 21:02:00,
2013-06-28 15:07:00,76.1,36.7,29.75,ENE,62,25.0,29.0,24,0.00,,CLR,0.00,VWS V14.01,2013-06-28 21:07:00,
2013-06-28 15:12:00,76.4,38.0,29.75,ESE,102,19.0,31.0,25,0.00,,CLR,0.00,VWS V14.01,2013-06-28 21:12:00,
2013-06-28 15:17:00,75.8,38.5,29.76,ENE,70,21.0,32.0,26,0.00,,CLR,0.00,VWS V14.01,2013-06-28 21:17:00,
2013-06-28 15:22:00,75.6,38.3,29.76,ESE,113,15.0,32.0,26,0.00,,CLR,0.00,VWS V14.01,2013-06-28 21:22:00,
2013-06-28 15:28:00,75.8,38.5,29.75,ESE,116,19.0,24.0,26,0.00,,CLR,0.00,VWS V14.01,2013-06-28 21:28:00,
2013-06-28 15:30:00,75.8,38.5,29.76,ESE,116,18.0,32.0,26,0.00,,CLR,0.00,VWS V14.01,2013-06-28 21:30:00,
2013-06-28 15:33:00,76.1,37.8,29.76,East,100,15.0,27.0,25,0.00,,BKN120,0.00,VWS V14.01,2013-06-28 21:33:00,
2013-06-28 15:38:00,76.1,37.8,29.76,ESE,110,21.0,27.0,25,0.00,,BKN120,0.00,VWS V14.01,2013-06-28 21:38:00,
2013-06-28 15:43:00,75.8,37.5,29.77,East,86,12.0,27.0,25,0.00,,BKN120,0.00,VWS V14.01,2013-06-28 21:43:00,
2013-06-28 15:48:00,75.4,38.2,29.78,East,94,16.0,27.0,26,0.00,,OVC110,0.00,VWS V14.01,2013-06-28 21:48:00,
2013-06-28 15:53:00,75.3,38.1,29.81,NW,324,7.0,27.0,26,0.00,,OVC110,0.00,VWS V14.01,2013-06-28 21:53:00,
2013-06-28 15:58:00,75.7,40.3,29.81,North,355,2.0,7.0,28,0.00,,OVC110,0.00,VWS V14.01,2013-06-28 21:58:00,
2013-06-28 16:00:00,75.6,40.2,29.81,WNW,297,2.0,27.0,28,0.00,,CLR,0.00,VWS V14.01,2013-06-28 22:00:00,
2013-06-28 16:03:00,75.5,41.0,29.81,NNW,344,5.0,7.0,29,0.00,,OVC110,0.00,VWS V14.01,2013-06-28 22:03:00,
2013-06-28 16:08:00,75.0,41.5,29.81,ENE,58,3.0,7.0,30,0.00,,OVC110,0.00,VWS V14.01,2013-06-28 22:08:00,
2013-06-28 16:13:00,74.9,43.1,29.81,North,11,3.0,7.0,32,0.00,,OVC110,0.00,VWS V14.01,2013-06-28 22:13:00,
2013-06-28 16:18:00,75.1,43.3,29.82,NNW,335,6.0,10.0,32,0.00,,OVC110,0.00,VWS V14.01,2013-06-28 22:18:00,
2013-06-28 16:23:00,74.8,42.2,29.81,NE,41,3.0,10.0,31,0.00,,OVC110,0.00,VWS V14.01,2013-06-28 22:23:00,
2013-06-28 16:28:00,74.5,41.9,29.81,NNW,338,0.0,4.0,31,0.00,,OVC110,0.00,VWS V14.01,2013-06-28 22:28:00,
2013-06-28 16:30:00,74.5,41.9,29.81,NW,326,2.0,10.0,31,0.00,,CLR,0.00,VWS V14.01,2013-06-28 22:30:00,
2013-06-28 16:33:00,74.4,41.0,29.81,West,259,0.0,5.0,30,0.00,,OVC110,0.00,VWS V14.01,2013-06-28 22:33:00,
2013-06-28 16:38:00,74.5,41.9,29.81,NNE,30,6.0,9.0,31,0.00,,OVC110,0.00,VWS V14.01,2013-06-28 22:38:00,
2013-06-28 16:43:00,73.9,41.4,29.80,NNE,21,4.0,11.0,31,0.00,,OVC110,0.00,VWS V14.01,2013-06-28 22:43:00,
2013-06-28 16:48:00,72.8,41.3,29.80,North,352,2.0,11.0,32,0.00,,OVC120,0.00,VWS V14.01,2013-06-28 22:48:00,
2013-06-28 16:53:00,72.5,43.3,29.81,WNW,298,6.0,12.0,35,0.00,,OVC120,0.00,VWS V14.01,2013-06-28 22:53:00,
2013-06-28 16:58:00,71.8,41.2,29.80,West,277,6.0,10.0,33,0.00,,OVC120,0.00,VWS V14.01,2013-06-28 22:58:00,
2013-06-28 17:00:00,71.9,42.8,29.80,WNW,295,3.0,19.0,35,0.00,,CLR,0.00,VWS V14.01,2013-06-28 23:00:00,
2013-06-28 17:03:00,71.3,41.5,29.80,West,266,9.0,19.0,34,0.00,,OVC110,0.00,VWS V14.01,2013-06-28 23:03:00,
2013-06-28 17:08:00,71.7,39.5,29.80,WNW,298,6.0,19.0,31,0.00,,OVC110,0.00,VWS V14.01,2013-06-28 23:08:00,
2013-06-28 17:13:00,72.8,40.4,29.80,West,270,8.0,19.0,31,0.00,,OVC110,0.00,VWS V14.01,2013-06-28 23:13:00,
2013-06-28 17:18:00,74.0,38.9,29.80,SW,224,0.0,19.0,28,0.00,,OVC110,0.00,VWS V14.01,2013-06-28 23:18:00,
2013-06-28 17:23:00,74.4,38.3,29.79,WSW,250,3.0,19.0,27,0.00,,OVC110,0.00,VWS V14.01,2013-06-28 23:23:00,
2013-06-28 17:28:00,74.0,38.9,29.78,WSW,245,10.0,17.0,28,0.00,,OVC110,0.00,VWS V14.01,2013-06-28 23:28:00,
2013-06-28 17:30:00,74.1,38.0,29.78,SW,233,17.0,19.0,27,0.00,,CLR,0.00,VWS V14.01,2013-06-28 23:30:00,
2013-06-28 17:33:00,73.9,37.8,29.78,SSW,198,3.0,17.0,27,0.00,,OVC120,0.00,VWS V14.01,2013-06-28 23:33:00,
2013-06-28 17:39:00,74.1,37.1,29.78,SSW,198,2.0,17.0,26,0.00,,OVC120,0.00,VWS V14.01,2013-06-28 23:39:00,
2013-06-28 17:44:00,74.4,37.3,29.78,ESE,117,7.0,17.0,26,0.00,,OVC120,0.00,VWS V14.01,2013-06-28 23:44:00,
2013-06-28 17:49:00,74.8,36.7,29.78,ESE,103,4.0,17.0,25,0.00,,BKN110,0.00,VWS V14.01,2013-06-28 23:49:00,
2013-06-28 17:54:00,74.8,40.5,29.80,NW,311,2.0,17.0,29,0.00,,BKN110,0.00,VWS V14.01,2013-06-28 23:54:00,
2013-06-28 17:59:00,73.5,41.9,29.80,ESE,115,0.0,9.0,32,0.00,,BKN110,0.00,VWS V14.01,2013-06-28 23:59:00,
2013-06-28 18:00:00,73.9,40.5,29.80,NNW,342,5.0,17.0,30,0.00,,CLR,0.00,VWS V14.01,2013-06-29 00:00:00,
2013-06-28 18:04:00,72.7,42.0,29.79,NNW,328,4.0,9.0,33,0.00,,CLR,0.00,VWS V14.01,2013-06-29 00:04:00,
2013-06-28 18:09:00,72.3,42.4,29.79,NNW,333,0.0,9.0,34,0.00,,CLR,0.00,VWS V14.01,2013-06-29 00:09:00,
2013-06-28 18:14:00,72.0,42.9,29.79,ENE,59,2.0,9.0,35,0.00,,CLR,0.00,VWS V14.01,2013-06-29 00:14:00,
2013-06-28 18:19:00,72.0,42.1,29.79,ENE,58,0.0,9.0,34,0.00,,CLR,0.00,VWS V14.01,2013-06-29 00:19:00,
2013-06-28 18:24:00,72.0,42.9,29.78,ENE,63,0.0,9.0,35,0.00,,CLR,0.00,VWS V14.01,2013-06-29 00:24:00,
2013-06-28 18:29:00,72.0,42.1,29.78,East,91,1.0,2.0,34,0.00,,CLR,0.00,VWS V14.01,2013-06-29 00:29:00,
2013-06-28 18:30:00,72.0,42.1,29.78,SE,141,0.0,9.0,34,0.00,,CLR,0.00,VWS V14.01,2013-06-29 00:30:00,
2013-06-28 18:34:00,72.0,42.1,29.78,NE,51,4.0,5.0,34,0.00,,CLR,0.00,VWS V14.01,2013-06-29 00:34:00,
2013-06-28 18:39:00,72.1,42.2,29.78,ENE,60,2.0,5.0,34,0.00,,CLR,0.00,VWS V14.01,2013-06-29 00:39:00,
2013-06-28 18:44:00,72.0,42.1,29.78,NE,49,4.0,6.0,34,0.00,,CLR,0.00,VWS V14.01,2013-06-29 00:44:00,
2013-06-28 18:49:00,72.1,42.2,29.78,NE,55,4.0,6.0,34,0.00,,CLR,0.00,VWS V14.01,2013-06-29 00:49:00,
2013-06-28 18:54:00,72.1,42.2,29.78,NE,37,1.0,6.0,34,0.00,,CLR,0.00,VWS V14.01,2013-06-29 00:54:00,
2013-06-28 18:59:00,72.1,41.4,29.78,East,94,4.0,4.0,33,0.00,,CLR,0.00,VWS V14.01,2013-06-29 00:59:00,
2013-06-28 19:00:00,72.1,41.4,29.78,NE,50,2.0,6.0,33,0.00,,CLR,0.00,VWS V14.01,2013-06-29 01:00:00,
2013-06-28 19:04:00,72.5,41.0,29.78,ESE,110,3.0,10.0,32,0.00,,CLR,0.00,VWS V14.01,2013-06-29 01:04:00,
2013-06-28 19:09:00,72.6,41.1,29.79,ESE,103,2.0,10.0,32,0.00,,CLR,0.00,VWS V14.01,2013-06-29 01:09:00,
2013-06-28 19:14:00,72.6,41.1,29.79,East,91,2.0,10.0,32,0.00,,CLR,0.00,VWS V14.01,2013-06-29 01:14:00,
2013-06-28 19:19:00,72.5,41.0,29.79,ESE,120,8.0,10.0,32,0.00,,CLR,0.00,VWS V14.01,2013-06-29 01:19:00,
2013-06-28 19:24:00,72.3,40.8,29.79,East,85,4.0,10.0,32,0.00,,CLR,0.00,VWS V14.01,2013-06-29 01:24:00,
2013-06-28 19:29:00,72.1,40.7,29.80,SE,137,4.0,6.0,32,0.00,,CLR,0.00,VWS V14.01,2013-06-29 01:29:00,
2013-06-28 19:30:00,72.3,40.8,29.80,ESE,119,6.0,10.0,32,0.00,,CLR,0.00,VWS V14.01,2013-06-29 01:30:00,
2013-06-28 19:34:00,71.9,41.3,29.80,WSW,243,0.0,9.0,33,0.00,,CLR,0.00,VWS V14.01,2013-06-29 01:34:00,
2013-06-28 19:39:00,71.6,41.8,29.80,NW,326,0.0,9.0,34,0.00,,CLR,0.00,VWS V14.01,2013-06-29 01:39:00,
2013-06-28 19:44:00,71.1,41.3,29.81,NW,311,0.0,9.0,34,0.00,,CLR,0.00,VWS V14.01,2013-06-29 01:44:00,
2013-06-28 19:49:00,70.5,41.6,29.81,West,264,2.0,9.0,35,0.00,,CLR,0.00,VWS V14.01,2013-06-29 01:49:00,
2013-06-28 19:55:00,70.2,41.3,29.81,West,262,2.0,9.0,35,0.00,,CLR,0.00,VWS V14.01,2013-06-29 01:55:00,
2013-06-28 20:00:00,69.7,42.3,29.81,WSW,251,4.0,9.0,37,0.00,,CLR,0.00,VWS V14.01,2013-06-29 02:00:00,
2013-06-28 20:05:00,69.4,42.7,29.81,WNW,284,0.0,9.0,38,0.00,,CLR,0.00,VWS V14.01,2013-06-29 02:05:00,
2013-06-28 20:10:00,69.1,42.5,29.81,WNW,290,0.0,9.0,38,0.00,,CLR,0.00,VWS V14.01,2013-06-29 02:10:00,
2013-06-28 20:15:00,68.9,43.0,29.81,West,278,0.0,9.0,39,0.00,,CLR,0.00,VWS V14.01,2013-06-29 02:15:00,
2013-06-28 20:20:00,68.4,42.5,29.82,ENE,77,5.0,9.0,39,0.00,,CLR,0.00,VWS V14.01,2013-06-29 02:20:00,
2013-06-28 20:25:00,67.9,42.7,29.81,ENE,61,4.0,9.0,40,0.00,,CLR,0.00,VWS V14.01,2013-06-29 02:25:00,
2013-06-28 20:30:00,67.7,42.5,29.81,NE,47,4.0,7.0,40,0.00,,CLR,0.00,VWS V14.01,2013-06-29 02:30:00,
2013-06-28 20:35:00,67.5,42.3,29.81,ENE,63,2.0,7.0,40,0.00,,CLR,0.00,VWS V14.01,2013-06-29 02:35:00,
2013-06-28 20:40:00,67.2,42.1,29.81,ENE,62,2.0,7.0,40,0.00,,CLR,0.00,VWS V14.01,2013-06-29 02:40:00,
2013-06-28 20:45:00,66.9,42.5,29.82,ENE,59,3.0,7.0,41,0.00,,CLR,0.00,VWS V14.01,2013-06-29 02:45:00,
2013-06-28 20:50:00,66.5,42.1,29.82,ENE,77,2.0,7.0,41,0.00,,CLR,0.00,VWS V14.01,2013-06-29 02:50:00,
2013-06-28 20:55:00,66.1,41.7,29.82,East,93,2.0,7.0,41,0.00,,CLR,0.00,VWS V14.01,2013-06-29 02:55:00,
2013-06-28 21:00:00,66.0,42.3,29.82,East,89,2.0,3.0,42,0.00,,CLR,0.00,VWS V14.01,2013-06-29 03:00:00,
2013-06-28 21:05:00,66.2,41.8,29.82,SE,129,2.0,5.0,41,0.00,,CLR,0.00,VWS V14.01,2013-06-29 03:05:00,
2013-06-28 21:10:00,66.5,42.1,29.82,ESE,116,3.0,5.0,41,0.00,,CLR,0.00,VWS V14.01,2013-06-29 03:10:00,
2013-06-28 21:15:00,66.7,41.6,29.81,East,93,1.0,5.0,40,0.00,,CLR,0.00,VWS V14.01,2013-06-29 03:15:00,
2013-06-28 21:20:00,66.8,41.7,29.82,ESE,105,1.0,5.0,40,0.00,,CLR,0.00,VWS V14.01,2013-06-29 03:20:00,
2013-06-28 21:25:00,66.5,41.5,29.82,ESE,118,3.0,5.0,40,0.00,,CLR,0.00,VWS V14.01,2013-06-29 03:25:00,
2013-06-28 21:30:00,66.4,41.4,29.82,ESE,114,1.0,4.0,40,0.00,,CLR,0.00,VWS V14.01,2013-06-29 03:30:00,
2013-06-28 21:35:00,66.4,41.4,29.82,ESE,106,5.0,5.0,40,0.00,,CLR,0.00,VWS V14.01,2013-06-29 03:35:00,
2013-06-28 21:40:00,66.6,41.5,29.81,ESE,105,7.0,8.0,40,0.00,,CLR,0.00,VWS V14.01,2013-06-29 03:40:00,
2013-06-28 21:45:00,67.0,41.9,29.81,ESE,117,6.0,8.0,40,0.00,,CLR,0.00,VWS V14.01,2013-06-29 03:45:00,
2013-06-28 21:50:00,67.1,41.3,29.82,ESE,110,6.0,10.0,39,0.00,,CLR,0.00,VWS V14.01,2013-06-29 03:50:00,
2013-06-28 21:55:00,67.0,41.9,29.82,South,169,5.0,10.0,40,0.00,,CLR,0.00,VWS V14.01,2013-06-29 03:55:00,
2013-06-28 22:00:00,66.7,41.6,29.81,ENE,77,7.0,8.0,40,0.00,,CLR,0.00,VWS V14.01,2013-06-29 04:00:00,
2013-06-28 22:01:00,66.7,41.6,29.82,ESE,108,7.0,10.0,40,0.00,,CLR,0.00,VWS V14.01,2013-06-29 04:01:00,
2013-06-28 22:02:00,66.6,41.5,29.82,ESE,119,5.0,10.0,40,0.00,,CLR,0.00,VWS V14.01,2013-06-29 04:02:00,
2013-06-28 22:03:00,66.5,42.1,29.82,East,92,5.0,10.0,41,0.00,,CLR,0.00,VWS V14.01,2013-06-29 04:03:00,
2013-06-28 22:07:00,66.3,41.9,29.82,ESE,119,8.0,10.0,41,0.00,,CLR,0.00,VWS V14.01,2013-06-29 04:07:00,
2013-06-28 22:11:00,66.2,41.8,29.82,East,86,3.0,10.0,41,0.00,,CLR,0.00,VWS V14.01,2013-06-29 04:11:00,
2013-06-28 22:17:00,66.1,41.7,29.82,SE,129,8.0,13.0,41,0.00,,CLR,0.00,VWS V14.01,2013-06-29 04:17:00,
2013-06-28 22:22:00,65.9,41.6,29.82,NE,44,2.0,13.0,41,0.00,,CLR,0.00,VWS V14.01,2013-06-29 04:22:00,
2013-06-28 22:27:00,65.6,41.3,29.82,ESE,110,2.0,13.0,41,0.00,,CLR,0.00,VWS V14.01,2013-06-29 04:27:00,
2013-06-28 22:30:00,65.6,41.3,29.82,ESE,110,1.0,13.0,41,0.00,,CLR,0.00,VWS V14.01,2013-06-29 04:30:00,
2013-06-28 22:32:00,65.2,41.5,29.82,South,176,0.0,6.0,42,0.00,,CLR,0.00,VWS V14.01,2013-06-29 04:32:00,
2013-06-28 22:37:00,64.9,41.3,29.82,SE,146,3.0,6.0,42,0.00,,CLR,0.00,VWS V14.01,2013-06-29 04:37:00,
2013-06-28 22:42:00,64.6,41.0,29.82,SE,124,4.0,6.0,42,0.00,,CLR,0.00,VWS V14.01,2013-06-29 04:42:00,
2013-06-28 22:47:00,64.4,41.4,29.82,ESE,116,8.0,9.0,43,0.00,,CLR,0.00,VWS V14.01,2013-06-29 04:47:00,
2013-06-28 22:52:00,64.4,41.4,29.82,ESE,117,4.0,10.0,43,0.00,,CLR,0.00,VWS V14.01,2013-06-29 04:52:00,
2013-06-28 22:57:00,64.5,40.9,29.82,ESE,121,3.0,3.0,42,0.00,,CLR,0.00,VWS V14.01,2013-06-29 04:57:00,
2013-06-28 23:00:00,64.5,40.9,29.82,ESE,110,3.0,10.0,42,0.00,,CLR,0.00,VWS V14.01,2013-06-29 05:00:00,
2013-06-28 23:02:00,64.3,40.7,29.83,ENE,58,0.0,6.0,42,0.00,,CLR,0.00,VWS V14.01,2013-06-29 05:02:00,
2013-06-28 23:07:00,63.6,40.7,29.83,ESE,115,3.0,6.0,43,0.00,,CLR,0.00,VWS V14.01,2013-06-29 05:07:00,
2013-06-28 23:12:00,63.3,40.5,29.83,East,82,5.0,6.0,43,0.00,,CLR,0.00,VWS V14.01,2013-06-29 05:12:00,
2013-06-28 23:17:00,63.3,40.5,29.83,ESE,111,9.0,10.0,43,0.00,,CLR,0.00,VWS V14.01,2013-06-29 05:17:00,
2013-06-28 23:22:00,63.4,40.5,29.84,ESE,114,5.0,10.0,43,0.00,,CLR,0.00,VWS V14.01,2013-06-29 05:22:00,
2013-06-28 23:27:00,63.4,40.5,29.83,ESE,122,3.0,4.0,43,0.00,,CLR,0.00,VWS V14.01,2013-06-29 05:27:00,
2013-06-28 23:30:00,63.4,40.5,29.83,SE,135,3.0,10.0,43,0.00,,CLR,0.00,VWS V14.01,2013-06-29 05:30:00,
2013-06-28 23:32:00,63.6,40.7,29.83,South,173,1.0,7.0,43,0.00,,CLR,0.00,VWS V14.01,2013-06-29 05:32:00,
2013-06-28 23:37:00,63.5,40.6,29.83,WNW,290,0.0,7.0,43,0.00,,CLR,0.00,VWS V14.01,2013-06-29 05:37:00,
2013-06-28 23:42:00,63.0,40.8,29.84,WNW,291,0.0,7.0,44,0.00,,CLR,0.00,VWS V14.01,2013-06-29 05:42:00,
2013-06-28 23:47:00,62.3,39.5,29.84,ENE,65,1.0,7.0,43,0.00,,CLR,0.00,VWS V14.01,2013-06-29 05:47:00,
2013-06-28 23:52:00,62.0,39.9,29.84,East,85,0.0,7.0,44,0.00,,CLR,0.00,VWS V14.01,2013-06-29 05:52:00,
2013-06-28 23:57:00,61.7,39.6,29.84,East,85,0.0,0.0,44,0.00,,CLR,0.00,VWS V14.01,2013-06-29 05:57:00,